| time (UTC) | temp C | wind direction | speed KPH | gust KPH | rain 1hr cm | rain 24hr cm | rain mn cm | humidity % | barometer mb |
| 20260503211559 | 15 | 10 | 33.8 | 33.8 | 0.00 | 0.00 | 0.00 | 89 | 1012.0 |
| 20260503204557 | 15 | 10 | 33.8 | 33.8 | 0.00 | 0.00 | 0.00 | 89 | 1012.0 |
| 20260503201553 | 15 | 10 | 33.8 | 33.8 | 0.00 | 0.00 | 0.00 | 89 | 1012.0 |
| 20260503194552 | 15 | 10 | 33.8 | 33.8 | 0.00 | 0.00 | 0.00 | 88 | 1012.0 |
| 20260503191549 | 15 | 10 | 33.8 | 33.8 | 0.00 | 0.00 | 0.00 | 86 | 1011.0 |
| 20260503184547 | 15 | 10 | 33.8 | 33.8 | 0.00 | 0.00 | 0.00 | 87 | 1011.0 |
| 20260503181546 | 15 | 10 | 33.8 | 33.8 | 0.00 | 0.00 | 0.00 | 87 | 1011.0 |
| 20260503174543 | 15 | 10 | 33.8 | 33.8 | 0.00 | 0.00 | 0.00 | 85 | 1011.0 |
| 20260503171540 | 16 | 10 | 33.8 | 33.8 | 0.00 | 0.00 | 0.00 | 80 | 1011.0 |
| 20260503081548 | 15 | 100 | 4.8 | 4.8 | 0.00 | 0.00 | 0.00 | 77 | 1013.0 |
| 20260503071541 | 12 | 270 | 4.8 | 4.8 | 0.00 | 0.00 | 0.00 | 83 | 1013.0 |
| 20260503054533 | 12 | 290 | 4.8 | 4.8 | 0.00 | 0.00 | 0.00 | 87 | 1013.0 |
| 20260503051532 | 12 | 290 | 4.8 | 4.8 | 0.00 | 0.00 | 0.00 | 87 | 1013.0 |
| 20260503044529 | 13 | 290 | 4.8 | 4.8 | 0.00 | 0.00 | 0.00 | 87 | 1013.0 |
| 20260503041525 | 13 | 290 | 4.8 | 4.8 | 0.00 | 0.00 | 0.00 | 86 | 1013.0 |
| 20260503034524 | 13 | 290 | 4.8 | 4.8 | 0.00 | 0.00 | 0.00 | 86 | 1013.0 |
| 20260503031521 | 13 | 290 | 4.8 | 4.8 | 0.00 | 0.00 | 0.00 | 86 | 1013.0 |
| 20260503024518 | 13 | 290 | 4.8 | 4.8 | 0.00 | 0.00 | 0.00 | 85 | 1013.0 |
| 20260503021515 | 13 | 290 | 4.8 | 4.8 | 0.00 | 0.00 | 0.00 | 84 | 1013.0 |
| 20260503014513 | 13 | 290 | 4.8 | 4.8 | 0.00 | 0.00 | 0.00 | 81 | 1014.0 |
| 20260503011510 | 13 | 290 | 4.8 | 4.8 | 0.00 | 0.00 | 0.00 | 80 | 1014.0 |
| 20260503004507 | 13 | 290 | 4.8 | 4.8 | 0.00 | 0.00 | 0.00 | 80 | 1014.0 |
| 20260503001604 | 14 | 290 | 4.8 | 4.8 | 0.00 | 0.00 | 0.00 | 82 | 1014.0 |
| 20260502234602 | 14 | 290 | 4.8 | 4.8 | 0.00 | 0.00 | 0.00 | 80 | 1014.0 |
| 20260502231559 | 15 | 290 | 4.8 | 4.8 | 0.00 | 0.00 | 0.00 | 80 | 1014.0 |
| 20260502224556 | 15 | 290 | 4.8 | 4.8 | 0.00 | 0.00 | 0.00 | 80 | 1014.0 |
| 20260502221555 | 15 | 331 | 3.2 | 3.2 | 0.00 | 0.00 | 0.00 | 79 | 1014.0 |
| 20260502214551 | 15 | 160 | 12.9 | 12.9 | 0.00 | 0.00 | 0.00 | 81 | 1015.0 |